Location: Arcizac
(43.0933°N, 0.0112°E)
Time: 02:53:31
(UTC+00:00)

Cosmos 1417 Rocket - Pass Details

Date: 14 December 2019
Orbit: 952 x 999 km, 83.0° (Epoch: 17 January)

Event Time Altitude Azimuth Distance (km) Brightness Sun altitude
Rises 18:06:34 0° 353° (N) 3,637 7.4 -17.7°
Reaches altitude 10° 18:09:04 10° 354° (N) 2,688 6.7 -18.2°
Maximum altitude 18:15:14 80° 82° (E) 975 4.3 -19.2°
Drops below altitude 10° 18:21:22 10° 170° (S) 2,687 6.8 -20.3°
Sets 18:23:52 0° 171° (S) 3,635 7.5 -20.8°
